Starlink 1169

operational
NORAD ID: 45061 Int'l Des: 2020-006 Owner: SPXS Country: US Constellation: starlink
LEOCIRCULARSTARLINK_TYPE

About Starlink 1169

Description loading...

Live Position

Loading 3D Globe...

Upcoming Passes

Altitude History

Altitude vs Time

uPlot chart will show altitude changes over time

Two-Line Element Set

1 45061U 20006T 26050.25002314 .00036567 00000-0 12415-2 0 9996
2 45061 53.1590 6.6471 0001719 92.1712 318.2522 15.30177303 5834
Epoch: Feb 19, 2026 • Age: 3 hours

Current Status

Altitude 479.9 km
Velocity 7.63 km/s
Sub-Earth Point 49.76°N, 139.92°E
Launch Date Jan 29, 2020
Age 6 years
Type internet

Technical Details

Classification Payload
Mass 260.00 kg
Dry Mass 248.00 kg
Total Mass 260.00 kg
Length 0.20 m
Diameter 2.80 m
Span 9.00 m
Shape Box + pan
Manufacturer SPXS
Bus Type Starlink
Phase Status In Orbit
Owner/State SPXS/US

Large Constellations

Loading constellations...